Home > Weather > Sioux Falls > Past weeks

Flag for USA Past Weather in Sioux Falls, South Dakota, USA — Yesterday and Last 2 Weeks

Now
52 °F

Passing clouds.


Feels Like: 52 °F
Forecast: 51 / 75 °F
Wind: No wind

Location: Foss Field

Current Time: Aug 26, 2016 at 5:27:21 AM

Latest Report: Aug 26, 2016 at 4:56 AM


Visibility: 10 mi

Pressure: 30.16 "Hg

Humidity: 97%

Dew Point: 51 °F

Location of Sioux FallsLocation

Past Weather in Sioux Falls — Graph

°F

Sioux Falls Temperature Yesterday

Maximum temperature yesterday: 74 °F (at 3:56 PM)
Minimum temperature yesterday: 57 °F (at 11:56 PM)
Average temperature yesterday: 65 °F

High & Low Weather Summary for the Past Weeks

 TemperatureHumidityPressure
High91 °F (Aug 18, 3:56 PM)100% (Aug 12, 4:56 AM)30.19 "Hg (Aug 12, 4:56 AM)
Low50 °F (Aug 21, 6:56 AM)34% (Aug 16, 4:56 PM)29.76 "Hg (Aug 18, 7:56 PM)
Average71 °F72%29.95 "Hg
* Reported Aug 11 3:56 AM — Aug 26 3:56 AM, Sioux Falls, Weather by CustomWeather, © 2016

Note: Actual official high and low records may vary slightly from our data, if they occured in-between our weather recording intervals... More about our weather records

Advertising

Sioux Falls Weather History for the Previous 24 Hours

Scroll right to see more
 ConditionsComfort  
Time TempWeatherWind HumidityBarometerVisibility
3:56 AM
Fri, Aug 26
53 °FPassing clouds.No wind96%30.16 "Hg10 mi
2:56 AM53 °FClear.No wind96%30.16 "Hg10 mi
1:56 AM54 °FClear.No wind93%30.17 "Hg10 mi
12:56 AM55 °FClear.3 mph93%30.19 "Hg10 mi
11:56 PM
Thu, Aug 25
57 °FClear.No wind90%30.18 "Hg10 mi
10:56 PM59 °FClear.No wind84%30.17 "Hg10 mi
9:56 PM61 °FClear.No wind81%30.15 "Hg10 mi
8:56 PM62 °FPassing clouds.No wind80%30.13 "Hg10 mi
7:56 PM68 °FPassing clouds.No wind65%30.11 "Hg10 mi
6:56 PM73 °FPassing clouds.7 mph51%30.11 "Hg10 mi
5:56 PM74 °FPassing clouds.8 mph50%30.12 "Hg10 mi
4:56 PM74 °FPassing clouds.12 mph52%30.12 "Hg10 mi
3:56 PM74 °FPassing clouds.10 mph50%30.12 "Hg10 mi
2:56 PM73 °FScattered clouds.10 mph53%30.14 "Hg10 mi
1:56 PM71 °FScattered clouds.12 mph57%30.14 "Hg10 mi
12:56 PM70 °FPartly sunny.12 mph57%30.15 "Hg10 mi
11:56 AM67 °FPartly sunny.13 mph63%30.15 "Hg10 mi
10:56 AM65 °FPartly sunny.13 mph68%30.15 "Hg10 mi
9:56 AM61 °FHigh level clouds.13 mph75%30.14 "Hg10 mi
8:56 AM61 °FHigh level clouds.10 mph75%30.12 "Hg10 mi
7:56 AM59 °FHigh level clouds.6 mph84%30.11 "Hg10 mi
6:56 AM59 °FPassing clouds.3 mph81%30.10 "Hg10 mi
5:56 AM59 °FPassing clouds.No wind87%30.08 "Hg10 mi
Weather by CustomWeather, © 2016

See weather overviewHow to use our weather pages